Year,Month,Day,Hour,Minute,Value (Times are PST for temperature in C)
2020,04,20,08,14,10.60
2020,04,20,08,15,10.60
2020,04,20,08,16,10.60
2020,04,20,08,17,10.60
2020,04,20,08,18,10.70
2020,04,20,08,19,10.70
2020,04,20,08,20,10.70
2020,04,20,08,21,10.70
2020,04,20,08,22,10.80
2020,04,20,08,23,10.80
2020,04,20,08,24,10.80
2020,04,20,08,25,10.80
2020,04,20,08,26,10.80
2020,04,20,08,27,10.80
2020,04,20,08,28,10.90
2020,04,20,08,29,10.90
2020,04,20,08,30,10.90
2020,04,20,08,31,10.90
2020,04,20,08,32,10.90
2020,04,20,08,33,10.90
2020,04,20,08,34,11.00
2020,04,20,08,35,11.00
2020,04,20,08,36,11.00
2020,04,20,08,37,11.10
2020,04,20,08,38,11.10
2020,04,20,08,39,11.10
2020,04,20,08,40,11.10
2020,04,20,08,41,11.20
2020,04,20,08,42,11.20
2020,04,20,08,43,11.20
2020,04,20,08,44,11.20
2020,04,20,08,45,11.20
2020,04,20,08,46,11.20
2020,04,20,08,47,11.20
2020,04,20,08,48,11.20
2020,04,20,08,49,11.20
2020,04,20,08,50,11.20
2020,04,20,08,51,11.20
2020,04,20,08,52,11.20
2020,04,20,08,53,11.20
2020,04,20,08,54,11.20
2020,04,20,08,55,11.30
2020,04,20,08,56,11.30
2020,04,20,08,57,11.30
2020,04,20,08,58,11.40
2020,04,20,08,59,11.40
2020,04,20,09,00,11.40
2020,04,20,09,01,11.40
2020,04,20,09,02,11.40
2020,04,20,09,03,11.50
2020,04,20,09,04,11.50
2020,04,20,09,05,11.50
2020,04,20,09,06,11.50
2020,04,20,09,07,11.40
2020,04,20,09,08,11.40
2020,04,20,09,09,11.40
2020,04,20,09,10,11.40
2020,04,20,09,11,11.40
2020,04,20,09,12,11.40
2020,04,20,09,13,11.40
2020,04,20,09,14,11.40
2020,04,20,09,15,11.40
2020,04,20,09,16,11.40
2020,04,20,09,17,11.40
2020,04,20,09,18,11.40
2020,04,20,09,19,11.40
2020,04,20,09,20,11.50
2020,04,20,09,21,11.50
2020,04,20,09,22,11.50
2020,04,20,09,23,11.50
2020,04,20,09,24,11.60
2020,04,20,09,25,11.60
2020,04,20,09,26,11.60
2020,04,20,09,27,11.60
2020,04,20,09,28,11.70
2020,04,20,09,29,11.70
2020,04,20,09,30,11.70
2020,04,20,09,31,11.70
2020,04,20,09,32,11.70
2020,04,20,09,33,11.80
2020,04,20,09,34,11.80
2020,04,20,09,35,11.80
2020,04,20,09,36,11.80
2020,04,20,09,37,11.80
2020,04,20,09,38,11.80
2020,04,20,09,39,11.80
2020,04,20,09,40,11.80
2020,04,20,09,41,11.90
2020,04,20,09,42,11.90
2020,04,20,09,43,11.90
2020,04,20,09,44,12.00
2020,04,20,09,45,12.00
2020,04,20,09,46,12.00
2020,04,20,09,47,12.00
2020,04,20,09,48,12.00
2020,04,20,09,49,12.10
2020,04,20,09,50,12.10
2020,04,20,09,51,12.10
2020,04,20,09,52,12.10
2020,04,20,09,53,12.10
2020,04,20,09,54,12.10
2020,04,20,09,55,12.10
2020,04,20,09,56,12.10
2020,04,20,09,57,12.00
2020,04,20,09,58,12.00
2020,04,20,09,59,12.00
2020,04,20,10,00,12.10
2020,04,20,10,01,12.10
2020,04,20,10,02,12.20
2020,04,20,10,03,12.20
2020,04,20,10,04,12.30
2020,04,20,10,05,12.30
2020,04,20,10,06,12.40
2020,04,20,10,07,12.40
2020,04,20,10,08,12.30
2020,04,20,10,09,12.30
2020,04,20,10,10,12.30
2020,04,20,10,11,12.30
2020,04,20,10,12,12.30
2020,04,20,10,13,12.30
2020,04,20,10,14,12.20
2020,04,20,10,15,12.20
2020,04,20,10,16,12.20
2020,04,20,10,17,12.20
2020,04,20,10,18,12.30
2020,04,20,10,19,12.40
2020,04,20,10,20,12.30
2020,04,20,10,21,12.30
2020,04,20,10,22,12.30
2020,04,20,10,23,12.40
2020,04,20,10,24,12.40
2020,04,20,10,25,12.50
2020,04,20,10,26,12.60
2020,04,20,10,27,12.70
2020,04,20,10,28,12.70
2020,04,20,10,29,12.70
2020,04,20,10,30,12.70
2020,04,20,10,31,12.70
2020,04,20,10,32,12.70
2020,04,20,10,33,12.70
2020,04,20,10,34,12.80
2020,04,20,10,35,12.80
2020,04,20,10,36,12.80
2020,04,20,10,37,12.80
2020,04,20,10,38,12.80
2020,04,20,10,39,12.80
2020,04,20,10,40,12.80
2020,04,20,10,41,12.80
2020,04,20,10,42,12.70
2020,04,20,10,43,12.70
2020,04,20,10,44,12.80
2020,04,20,10,45,12.80
2020,04,20,10,46,12.90
2020,04,20,10,47,13.00
2020,04,20,10,48,13.00
2020,04,20,10,49,13.10
2020,04,20,10,50,13.20
2020,04,20,10,51,13.30
2020,04,20,10,52,13.40
2020,04,20,10,53,13.40
2020,04,20,10,54,13.40
2020,04,20,10,55,13.40
2020,04,20,10,56,13.40
2020,04,20,10,57,13.30
2020,04,20,10,58,13.30
2020,04,20,10,59,13.20
2020,04,20,11,00,13.30
2020,04,20,11,01,13.40
2020,04,20,11,02,13.50
2020,04,20,11,03,13.50
2020,04,20,11,04,13.60
2020,04,20,11,05,13.60
2020,04,20,11,06,13.60
2020,04,20,11,07,13.50
2020,04,20,11,08,13.40
2020,04,20,11,09,13.40
2020,04,20,11,10,13.30
2020,04,20,11,11,13.20
2020,04,20,11,12,13.20
2020,04,20,11,13,13.10
2020,04,20,11,14,13.10
2020,04,20,11,15,13.10
2020,04,20,11,16,13.10
2020,04,20,11,17,13.10
2020,04,20,11,18,13.20
2020,04,20,11,19,13.20
2020,04,20,11,20,13.20
2020,04,20,11,21,13.20
2020,04,20,11,22,13.20
2020,04,20,11,23,13.10
2020,04,20,11,24,13.10
2020,04,20,11,25,13.10
2020,04,20,11,26,13.10
2020,04,20,11,27,13.20
2020,04,20,11,28,13.30
2020,04,20,11,29,13.30
2020,04,20,11,30,13.20
2020,04,20,11,31,13.30
2020,04,20,11,32,13.20
2020,04,20,11,33,13.20
2020,04,20,11,34,13.10
2020,04,20,11,35,13.20
2020,04,20,11,36,13.20
2020,04,20,11,37,13.20
2020,04,20,11,38,13.20
2020,04,20,11,39,13.20
2020,04,20,11,40,13.10
2020,04,20,11,41,13.10
2020,04,20,11,42,13.00
2020,04,20,11,43,13.00
2020,04,20,11,44,12.90
2020,04,20,11,45,12.90
2020,04,20,11,46,12.90
2020,04,20,11,47,12.80
2020,04,20,11,48,12.80
2020,04,20,11,49,12.90
2020,04,20,11,50,13.00
2020,04,20,11,51,13.10
2020,04,20,11,52,13.30
2020,04,20,11,53,13.40
2020,04,20,11,54,13.40
2020,04,20,11,55,13.60
2020,04,20,11,56,13.70
2020,04,20,11,57,13.80
2020,04,20,11,58,13.60
2020,04,20,11,59,13.50
2020,04,20,12,00,13.30
2020,04,20,12,01,13.20
2020,04,20,12,02,13.10
2020,04,20,12,03,13.20
2020,04,20,12,04,13.20
2020,04,20,12,05,13.20
2020,04,20,12,06,13.30
2020,04,20,12,07,13.30
2020,04,20,12,08,13.30
2020,04,20,12,09,13.30
2020,04,20,12,10,13.30
2020,04,20,12,11,13.30
2020,04,20,12,12,13.20
2020,04,20,12,13,13.20
2020,04,20,12,14,13.20
2020,04,20,12,15,13.20
2020,04,20,12,16,13.30
2020,04,20,12,17,13.30
2020,04,20,12,18,13.40
2020,04,20,12,19,13.40
2020,04,20,12,20,13.40
2020,04,20,12,21,13.30
2020,04,20,12,22,13.40
2020,04,20,12,23,13.40
2020,04,20,12,24,13.40
2020,04,20,12,25,13.50
2020,04,20,12,26,13.70
2020,04,20,12,27,13.70
2020,04,20,12,28,13.70
2020,04,20,12,29,13.70
2020,04,20,12,30,13.80
2020,04,20,12,31,13.90
2020,04,20,12,32,14.00
2020,04,20,12,33,14.10
2020,04,20,12,34,14.10
2020,04,20,12,35,14.10
2020,04,20,12,36,14.00
2020,04,20,12,37,13.90
2020,04,20,12,38,14.00
2020,04,20,12,39,13.90
2020,04,20,12,40,13.80
2020,04,20,12,41,13.80
2020,04,20,12,42,13.70
2020,04,20,12,43,13.70
2020,04,20,12,44,13.80
2020,04,20,12,45,13.80
2020,04,20,12,46,13.70
2020,04,20,12,47,13.80
2020,04,20,12,48,13.80
2020,04,20,12,49,13.80
2020,04,20,12,50,13.70
2020,04,20,12,51,13.70
2020,04,20,12,52,13.70
2020,04,20,12,53,13.70
2020,04,20,12,54,13.70
2020,04,20,12,55,13.80
2020,04,20,12,56,13.70
2020,04,20,12,57,13.70
2020,04,20,12,58,13.80
2020,04,20,12,59,13.80
2020,04,20,13,00,13.80
2020,04,20,13,01,13.80
2020,04,20,13,02,13.80
2020,04,20,13,03,13.90
2020,04,20,13,04,14.00
2020,04,20,13,05,14.10
2020,04,20,13,06,14.20
2020,04,20,13,07,14.20
2020,04,20,13,08,14.20
2020,04,20,13,09,14.20
2020,04,20,13,10,14.10
2020,04,20,13,11,14.10
2020,04,20,13,12,14.20
2020,04,20,13,13,14.30
2020,04,20,13,14,14.50
2020,04,20,13,15,14.50
2020,04,20,13,16,14.70
2020,04,20,13,17,14.80
2020,04,20,13,18,14.60
2020,04,20,13,19,14.50
2020,04,20,13,20,14.40
2020,04,20,13,21,14.30
2020,04,20,13,22,14.20
2020,04,20,13,23,14.20
2020,04,20,13,24,14.20
2020,04,20,13,25,14.20
2020,04,20,13,26,14.20
2020,04,20,13,27,14.20
2020,04,20,13,28,14.30
2020,04,20,13,29,14.30
2020,04,20,13,30,14.40
2020,04,20,13,31,14.40
2020,04,20,13,32,14.40
2020,04,20,13,33,14.40
2020,04,20,13,34,14.30
2020,04,20,13,35,14.30
2020,04,20,13,36,14.30
2020,04,20,13,37,14.30
2020,04,20,13,38,14.10
2020,04,20,13,39,14.10
2020,04,20,13,40,14.10
2020,04,20,13,41,14.10
2020,04,20,13,42,14.10
2020,04,20,13,43,14.10
2020,04,20,13,44,14.10
2020,04,20,13,45,14.10
2020,04,20,13,46,14.10
2020,04,20,13,47,14.20
2020,04,20,13,48,14.20
2020,04,20,13,49,14.20
2020,04,20,13,50,14.10
2020,04,20,13,51,14.10
2020,04,20,13,52,14.10
2020,04,20,13,53,14.20
2020,04,20,13,54,14.20
2020,04,20,13,55,14.20
2020,04,20,13,56,14.20
2020,04,20,13,57,14.30
2020,04,20,13,58,14.30
2020,04,20,13,59,14.30
2020,04,20,14,00,14.20
2020,04,20,14,01,14.20
2020,04,20,14,02,14.10
2020,04,20,14,03,14.10
2020,04,20,14,04,14.10
2020,04,20,14,05,14.10
2020,04,20,14,06,14.10
2020,04,20,14,07,14.20
2020,04,20,14,08,14.20
2020,04,20,14,09,14.30
2020,04,20,14,10,14.40
2020,04,20,14,11,14.40
2020,04,20,14,12,14.40
2020,04,20,14,13,14.30
2020,04,20,14,14,14.40
2020,04,20,14,15,14.30
2020,04,20,14,16,14.30
2020,04,20,14,17,14.30
2020,04,20,14,18,14.30
2020,04,20,14,19,14.30
2020,04,20,14,20,14.30
2020,04,20,14,21,14.30
2020,04,20,14,22,14.30
2020,04,20,14,23,14.40
2020,04,20,14,24,14.50
2020,04,20,14,25,14.50
2020,04,20,14,26,14.50
2020,04,20,14,27,14.60
2020,04,20,14,28,14.70
2020,04,20,14,29,14.70
2020,04,20,14,30,14.70
2020,04,20,14,31,14.70
2020,04,20,14,32,14.80
2020,04,20,14,33,14.80
2020,04,20,14,34,14.80
2020,04,20,14,35,14.80
2020,04,20,14,36,14.80
2020,04,20,14,37,14.90
2020,04,20,14,38,15.00
2020,04,20,14,39,15.00
2020,04,20,14,40,15.00
2020,04,20,14,41,15.00
2020,04,20,14,42,15.00
2020,04,20,14,43,15.10
2020,04,20,14,44,15.10
2020,04,20,14,45,15.30
2020,04,20,14,46,15.40
2020,04,20,14,47,15.30
2020,04,20,14,48,15.30
2020,04,20,14,49,15.40
2020,04,20,14,50,15.30
2020,04,20,14,51,15.30
2020,04,20,14,52,15.20
2020,04,20,14,53,15.20
2020,04,20,14,54,15.30
2020,04,20,14,55,15.30
2020,04,20,14,56,15.20
2020,04,20,14,57,15.20
2020,04,20,14,58,15.10
2020,04,20,14,59,15.10
2020,04,20,15,00,15.10
2020,04,20,15,01,15.10
2020,04,20,15,02,15.10
2020,04,20,15,03,15.00
2020,04,20,15,04,15.00
2020,04,20,15,05,15.00
2020,04,20,15,06,15.00
2020,04,20,15,07,15.00
2020,04,20,15,08,15.00
2020,04,20,15,09,15.00
2020,04,20,15,10,15.00
2020,04,20,15,11,15.00
2020,04,20,15,12,15.00
2020,04,20,15,13,15.10
2020,04,20,15,14,15.10
2020,04,20,15,15,15.10
2020,04,20,15,16,15.00
2020,04,20,15,17,15.00
2020,04,20,15,18,15.00
2020,04,20,15,19,15.00
2020,04,20,15,20,15.00
2020,04,20,15,21,14.90
2020,04,20,15,22,14.90
2020,04,20,15,23,15.00
2020,04,20,15,24,15.00
2020,04,20,15,25,15.00
2020,04,20,15,26,15.00
2020,04,20,15,27,15.00
2020,04,20,15,28,15.00
2020,04,20,15,29,15.00
2020,04,20,15,30,15.00
2020,04,20,15,31,15.10
2020,04,20,15,32,15.10
2020,04,20,15,33,15.00
2020,04,20,15,34,15.10
2020,04,20,15,35,15.20
2020,04,20,15,36,15.20
2020,04,20,15,37,15.20
2020,04,20,15,38,15.40
2020,04,20,15,39,15.50
2020,04,20,15,40,15.60
2020,04,20,15,41,15.50
2020,04,20,15,42,15.50
2020,04,20,15,43,15.40
2020,04,20,15,44,15.40
2020,04,20,15,45,15.30
2020,04,20,15,46,15.30
2020,04,20,15,47,15.30
2020,04,20,15,48,15.40
2020,04,20,15,49,15.40
2020,04,20,15,50,15.50
2020,04,20,15,51,15.60
2020,04,20,15,52,15.70
2020,04,20,15,53,15.70
2020,04,20,15,54,15.90
2020,04,20,15,55,15.90
2020,04,20,15,56,16.00
2020,04,20,15,57,16.00
2020,04,20,15,58,16.10
2020,04,20,15,59,16.10
2020,04,20,16,00,16.10
2020,04,20,16,01,16.10
2020,04,20,16,02,15.90
2020,04,20,16,03,15.80
2020,04,20,16,04,15.70
2020,04,20,16,05,15.60
2020,04,20,16,06,15.60
2020,04,20,16,07,15.50
2020,04,20,16,08,15.50
2020,04,20,16,09,15.50
2020,04,20,16,10,15.40
2020,04,20,16,11,15.50
2020,04,20,16,12,15.60
2020,04,20,16,13,15.70
2020,04,20,16,14,15.70
2020,04,20,16,15,15.70
2020,04,20,16,16,15.80
2020,04,20,16,17,15.90
2020,04,20,16,18,15.90
2020,04,20,16,19,15.80
2020,04,20,16,20,15.80
2020,04,20,16,21,15.70
2020,04,20,16,22,15.80
2020,04,20,16,23,15.80
2020,04,20,16,24,15.80
2020,04,20,16,25,15.80
2020,04,20,16,26,15.90
2020,04,20,16,27,15.90
2020,04,20,16,28,16.00
2020,04,20,16,29,16.00
2020,04,20,16,30,16.10
2020,04,20,16,31,16.20
2020,04,20,16,32,16.20
2020,04,20,16,33,16.20
2020,04,20,16,34,16.30
2020,04,20,16,35,16.30
2020,04,20,16,36,16.30
2020,04,20,16,37,16.20
2020,04,20,16,38,16.20
2020,04,20,16,39,16.20
2020,04,20,16,40,16.20
2020,04,20,16,41,16.10
2020,04,20,16,42,16.10
2020,04,20,16,43,16.10
2020,04,20,16,44,16.10
2020,04,20,16,45,16.00
2020,04,20,16,46,16.00
2020,04,20,16,47,15.90
2020,04,20,16,48,15.90
2020,04,20,16,49,15.80
2020,04,20,16,50,15.90
2020,04,20,16,51,15.90
2020,04,20,16,52,15.90
2020,04,20,16,53,15.80
2020,04,20,16,54,15.80
2020,04,20,16,55,15.70
2020,04,20,16,56,15.70
2020,04,20,16,57,15.60
2020,04,20,16,58,15.60
2020,04,20,16,59,15.60
2020,04,20,17,00,15.60
2020,04,20,17,01,15.70
2020,04,20,17,02,15.70
2020,04,20,17,03,15.70
2020,04,20,17,04,15.70
2020,04,20,17,05,15.70
2020,04,20,17,06,15.80
2020,04,20,17,07,15.80
2020,04,20,17,08,15.80
2020,04,20,17,09,15.80
2020,04,20,17,10,15.80
2020,04,20,17,11,15.80
2020,04,20,17,12,15.80
2020,04,20,17,13,15.80
2020,04,20,17,14,15.80
2020,04,20,17,15,15.90
2020,04,20,17,16,16.00
2020,04,20,17,17,16.00
2020,04,20,17,18,16.10
2020,04,20,17,19,16.20
2020,04,20,17,20,16.30
2020,04,20,17,21,16.40
2020,04,20,17,22,16.40
2020,04,20,17,23,16.40
2020,04,20,17,24,16.40
2020,04,20,17,25,16.50
2020,04,20,17,26,16.60
2020,04,20,17,27,16.60
2020,04,20,17,28,16.60
2020,04,20,17,29,16.60
2020,04,20,17,30,16.70
2020,04,20,17,31,16.70
2020,04,20,17,32,16.70
2020,04,20,17,33,16.60
2020,04,20,17,34,16.60
2020,04,20,17,35,16.60
2020,04,20,17,36,16.50
2020,04,20,17,37,16.50
2020,04,20,17,38,16.50
2020,04,20,17,39,16.50
2020,04,20,17,40,16.40
2020,04,20,17,41,16.40
2020,04,20,17,42,16.50
2020,04,20,17,43,16.50
2020,04,20,17,44,16.50
2020,04,20,17,45,16.60
2020,04,20,17,46,16.60
2020,04,20,17,47,16.60
2020,04,20,17,48,16.60
2020,04,20,17,49,16.70
2020,04,20,17,50,16.70
2020,04,20,17,51,16.70
2020,04,20,17,52,16.80
2020,04,20,17,53,16.80
2020,04,20,17,54,16.80
2020,04,20,17,55,16.80
2020,04,20,17,56,16.80
2020,04,20,17,57,16.80
2020,04,20,17,58,16.80
2020,04,20,17,59,16.80
2020,04,20,18,00,16.80
2020,04,20,18,01,16.80
2020,04,20,18,02,16.80
2020,04,20,18,03,16.80
2020,04,20,18,04,16.80
2020,04,20,18,05,16.80
2020,04,20,18,06,16.80
2020,04,20,18,07,16.80
2020,04,20,18,08,16.80
2020,04,20,18,09,16.80
2020,04,20,18,10,16.80
2020,04,20,18,11,16.80
2020,04,20,18,12,16.80
2020,04,20,18,13,16.80
2020,04,20,18,14,16.80
2020,04,20,18,15,16.90
2020,04,20,18,16,16.90
2020,04,20,18,17,16.90
2020,04,20,18,18,16.90
2020,04,20,18,19,16.90
2020,04,20,18,20,16.90
2020,04,20,18,21,17.00
2020,04,20,18,22,17.00
2020,04,20,18,23,17.10
2020,04,20,18,24,17.10
2020,04,20,18,25,17.10
2020,04,20,18,26,17.10
2020,04,20,18,27,17.10
2020,04,20,18,28,17.10
2020,04,20,18,29,17.10
2020,04,20,18,30,17.10
2020,04,20,18,31,17.00
2020,04,20,18,32,17.00
2020,04,20,18,33,16.90
2020,04,20,18,34,16.90
2020,04,20,18,35,16.90
2020,04,20,18,36,16.90
2020,04,20,18,37,16.90
2020,04,20,18,38,16.90
2020,04,20,18,39,16.90
2020,04,20,18,40,16.90
2020,04,20,18,41,16.90
2020,04,20,18,42,16.90
2020,04,20,18,43,16.90
2020,04,20,18,44,16.90
2020,04,20,18,45,16.80
2020,04,20,18,46,16.80
2020,04,20,18,47,16.80
2020,04,20,18,48,16.80
2020,04,20,18,49,16.80
2020,04,20,18,50,16.80
2020,04,20,18,51,16.80
2020,04,20,18,52,16.80
2020,04,20,18,53,16.80
2020,04,20,18,54,16.80
2020,04,20,18,55,16.70
2020,04,20,18,56,16.60
2020,04,20,18,57,16.40
2020,04,20,18,58,16.30
2020,04,20,18,59,16.20
2020,04,20,19,00,16.10
2020,04,20,19,01,16.10
2020,04,20,19,02,15.90
2020,04,20,19,03,15.90
2020,04,20,19,04,15.80
2020,04,20,19,05,15.80
2020,04,20,19,06,15.70
2020,04,20,19,07,15.60
2020,04,20,19,08,15.50
2020,04,20,19,09,15.40
2020,04,20,19,10,15.40
2020,04,20,19,11,15.30
2020,04,20,19,12,15.20
2020,04,20,19,13,15.10
2020,04,20,19,14,15.00
2020,04,20,19,15,15.00
2020,04,20,19,16,15.00
2020,04,20,19,17,15.00
2020,04,20,19,18,15.00
2020,04,20,19,19,14.80
2020,04,20,19,20,14.80
2020,04,20,19,21,14.70
2020,04,20,19,22,14.60
2020,04,20,19,23,14.50
2020,04,20,19,24,14.40
2020,04,20,19,25,14.40
2020,04,20,19,26,14.30
2020,04,20,19,27,14.30
2020,04,20,19,28,14.20
2020,04,20,19,29,14.10
2020,04,20,19,30,14.10
2020,04,20,19,31,14.00
2020,04,20,19,32,14.00
2020,04,20,19,33,14.00
2020,04,20,19,34,14.00
2020,04,20,19,35,14.00
2020,04,20,19,36,14.00
2020,04,20,19,37,13.90
2020,04,20,19,38,13.90
2020,04,20,19,39,13.80
2020,04,20,19,40,13.80
2020,04,20,19,41,13.80
2020,04,20,19,42,13.80
2020,04,20,19,43,13.80
2020,04,20,19,44,13.80
2020,04,20,19,45,13.80
2020,04,20,19,46,13.80
2020,04,20,19,47,13.80
2020,04,20,19,48,13.70
2020,04,20,19,49,13.70
2020,04,20,19,50,13.70
2020,04,20,19,51,13.70
2020,04,20,19,52,13.70
2020,04,20,19,53,13.70
2020,04,20,19,54,13.70
2020,04,20,19,55,13.70
2020,04,20,19,56,13.70
2020,04,20,19,57,13.70
2020,04,20,19,58,13.70
2020,04,20,19,59,13.70
2020,04,20,20,00,13.70
2020,04,20,20,01,13.70
2020,04,20,20,02,13.70
2020,04,20,20,03,13.70
2020,04,20,20,04,13.70
2020,04,20,20,05,13.70
2020,04,20,20,06,13.70
2020,04,20,20,07,13.70
2020,04,20,20,08,13.70
2020,04,20,20,09,13.70
2020,04,20,20,10,13.70
2020,04,20,20,11,13.60
2020,04,20,20,12,13.60
2020,04,20,20,13,13.60
2020,04,20,20,14,13.60
2020,04,20,20,15,13.10
2020,04,20,20,16,12.80
2020,04,20,20,17,12.80
2020,04,20,20,18,12.80
2020,04,20,20,19,12.80
2020,04,20,20,20,12.80
2020,04,20,20,21,12.80
2020,04,20,20,22,12.80
2020,04,20,20,23,12.80
2020,04,20,20,24,12.80
2020,04,20,20,25,12.80
2020,04,20,20,26,12.80
